Index of /20260415/WXO-DD/model_gdps/15km/12/074
Name Last modified Size Description
Parent Directory -
20260415T12Z_MSC_GDPS_AirTemp_AGL-120m_LatLon0.15_PT074H.grib2 2026-04-15 16:04 913K
20260415T12Z_MSC_GDPS_AirTemp_AGL-2m_LatLon0.15_PT074H.grib2 2026-04-15 16:04 1.0M
20260415T12Z_MSC_GDPS_AirTemp_AGL-40m_LatLon0.15_PT074H.grib2 2026-04-15 16:04 814K
20260415T12Z_MSC_GDPS_AirTemp_AGL-80m_LatLon0.15_PT074H.grib2 2026-04-15 16:04 921K
20260415T12Z_MSC_GDPS_Albedo_Sfc_LatLon0.15_PT074H.grib2 2026-04-15 16:04 247K
20260415T12Z_MSC_GDPS_ConvectivePrecip-Accum_Sfc_LatLon0.15_PT074H.grib2 2026-04-15 16:04 3.0M
20260415T12Z_MSC_GDPS_DewPointDepression_AGL-2m_LatLon0.15_PT074H.grib2 2026-04-15 16:04 591K
20260415T12Z_MSC_GDPS_DewPoint_AGL-2m_LatLon0.15_PT074H.grib2 2026-04-15 16:04 617K
20260415T12Z_MSC_GDPS_DownwardLongwaveRadiationFlux-Accum_Sfc_LatLon0.15_PT074H.grib2 2026-04-15 16:04 915K
20260415T12Z_MSC_GDPS_DownwardShortwaveRadiationFlux-Accum_Sfc_LatLon0.15_PT074H.grib2 2026-04-15 16:04 1.1M
20260415T12Z_MSC_GDPS_FreezingRain-Accum1h_Sfc_LatLon0.15_PT074H.grib2 2026-04-15 16:04 31K
20260415T12Z_MSC_GDPS_FreezingRain-Accum_Sfc_LatLon0.15_PT074H.grib2 2026-04-15 16:04 239K
20260415T12Z_MSC_GDPS_IcePellets-Accum1h_Sfc_LatLon0.15_PT074H.grib2 2026-04-15 16:04 17K
20260415T12Z_MSC_GDPS_IcePellets-Accum_Sfc_LatLon0.15_PT074H.grib2 2026-04-15 16:04 101K
20260415T12Z_MSC_GDPS_LatentHeatNetFlux_Sfc_LatLon0.15_PT074H.grib2 2026-04-15 16:04 533K
20260415T12Z_MSC_GDPS_NetLongwaveRadiationFlux-Accum_Sfc_LatLon0.15_PT074H.grib2 2026-04-15 16:04 1.0M
20260415T12Z_MSC_GDPS_NetShortwaveRadiationFlux-Accum_Sfc_LatLon0.15_PT074H.grib2 2026-04-15 16:04 1.1M
20260415T12Z_MSC_GDPS_O3MixingRatio_LatLon0.15_PT074H.grib2 2026-04-15 16:49 1.9M
20260415T12Z_MSC_GDPS_O3_EAtm_LatLon0.15_PT074H.grib2 2026-04-15 16:49 2.1M
20260415T12Z_MSC_GDPS_PlanetaryBoundaryLayerHeight_Sfc_LatLon0.15_PT074H.grib2 2026-04-15 16:04 2.5M
20260415T12Z_MSC_GDPS_Precip-Accum1h_Sfc_LatLon0.15_PT074H.grib2 2026-04-15 16:04 3.2M
20260415T12Z_MSC_GDPS_Precip-Accum_Sfc_LatLon0.15_PT074H.grib2 2026-04-15 16:04 4.8M
20260415T12Z_MSC_GDPS_PrecipRate_Sfc_LatLon0.15_PT074H.grib2 2026-04-15 16:04 3.1M
20260415T12Z_MSC_GDPS_Pressure_MSL_LatLon0.15_PT074H.grib2 2026-04-15 16:04 722K
20260415T12Z_MSC_GDPS_Pressure_Sfc_LatLon0.15_PT074H.grib2 2026-04-15 16:04 1.1M
20260415T12Z_MSC_GDPS_RadiativeTemp_Sfc_LatLon0.15_PT074H.grib2 2026-04-15 16:04 498K
20260415T12Z_MSC_GDPS_Rain-Accum1h_Sfc_LatLon0.15_PT074H.grib2 2026-04-15 16:04 1.6M
20260415T12Z_MSC_GDPS_Rain-Accum_Sfc_LatLon0.15_PT074H.grib2 2026-04-15 16:04 3.6M
20260415T12Z_MSC_GDPS_RelativeHumidity_AGL-2m_LatLon0.15_PT074H.grib2 2026-04-15 16:04 1.1M
20260415T12Z_MSC_GDPS_Runoff-Accum_Sfc_LatLon0.15_PT074H.grib2 2026-04-15 16:04 126K
20260415T12Z_MSC_GDPS_SensibleHeatNetFlux_Sfc_LatLon0.15_PT074H.grib2 2026-04-15 16:04 640K
20260415T12Z_MSC_GDPS_Snow-Accum1h_Sfc_LatLon0.15_PT074H.grib2 2026-04-15 16:04 844K
20260415T12Z_MSC_GDPS_Snow-Accum_Sfc_LatLon0.15_PT074H.grib2 2026-04-15 16:04 1.9M
20260415T12Z_MSC_GDPS_SnowDepth_Sfc_LatLon0.15_PT074H.grib2 2026-04-15 16:04 1.8M
20260415T12Z_MSC_GDPS_SoilTemp_DBS-0to10cm_LatLon0.15_PT074H.grib2 2026-04-15 16:04 505K
20260415T12Z_MSC_GDPS_SoilTemp_Sfc_LatLon0.15_PT074H.grib2 2026-04-15 16:04 576K
20260415T12Z_MSC_GDPS_SoilVolumetricWaterContent_DBS-0to10cm_LatLon0.15_PT074H.grib2 2026-04-15 16:04 553K
20260415T12Z_MSC_GDPS_SoilVolumetricWaterContent_DBS-0to1cm_LatLon0.15_PT074H.grib2 2026-04-15 16:04 651K
20260415T12Z_MSC_GDPS_SpecificHumidity_AGL-120m_LatLon0.15_PT074H.grib2 2026-04-15 16:04 1.1M
20260415T12Z_MSC_GDPS_SpecificHumidity_AGL-2m_LatLon0.15_PT074H.grib2 2026-04-15 16:04 1.2M
20260415T12Z_MSC_GDPS_SpecificHumidity_AGL-40m_LatLon0.15_PT074H.grib2 2026-04-15 16:04 1.1M
20260415T12Z_MSC_GDPS_SpecificHumidity_AGL-80m_LatLon0.15_PT074H.grib2 2026-04-15 16:04 1.1M
20260415T12Z_MSC_GDPS_SpecificHumidity_Sfc_LatLon0.15_PT074H.grib2 2026-04-15 16:04 667K
20260415T12Z_MSC_GDPS_TotalCloudCover_Sfc_LatLon0.15_PT074H.grib2 2026-04-15 16:04 818K
20260415T12Z_MSC_GDPS_UVIndex-ClearSky_Sfc_LatLon0.15_PT074H.grib2 2026-04-15 16:49 1.0M
20260415T12Z_MSC_GDPS_UVIndex_Sfc_LatLon0.15_PT074H.grib2 2026-04-15 16:49 1.4M
20260415T12Z_MSC_GDPS_UpwardLongwaveRadiationFlux_NTAtm_LatLon0.15_PT074H.grib2 2026-04-15 16:04 839K
20260415T12Z_MSC_GDPS_WindDir_AGL-10m_LatLon0.15_PT074H.grib2 2026-04-15 16:04 1.3M
20260415T12Z_MSC_GDPS_WindDir_AGL-120m_LatLon0.15_PT074H.grib2 2026-04-15 16:04 1.4M
20260415T12Z_MSC_GDPS_WindDir_AGL-40m_LatLon0.15_PT074H.grib2 2026-04-15 16:04 1.4M
20260415T12Z_MSC_GDPS_WindDir_AGL-80m_LatLon0.15_PT074H.grib2 2026-04-15 16:04 1.4M
20260415T12Z_MSC_GDPS_WindDir_IsbL-0700_LatLon0.15_PT074H.grib2 2026-04-15 16:04 1.6M
20260415T12Z_MSC_GDPS_WindGust-Max_AGL-10m_LatLon0.15_PT074H.grib2 2026-04-15 16:04 2.2M
20260415T12Z_MSC_GDPS_WindGust-Min_AGL-10m_LatLon0.15_PT074H.grib2 2026-04-15 16:04 2.2M
20260415T12Z_MSC_GDPS_WindGust_AGL-10m_LatLon0.15_PT074H.grib2 2026-04-15 16:04 2.1M
20260415T12Z_MSC_GDPS_WindSpeed_AGL-10m_LatLon0.15_PT074H.grib2 2026-04-15 16:04 1.1M
20260415T12Z_MSC_GDPS_WindSpeed_AGL-120m_LatLon0.15_PT074H.grib2 2026-04-15 16:04 1.2M
20260415T12Z_MSC_GDPS_WindSpeed_AGL-40m_LatLon0.15_PT074H.grib2 2026-04-15 16:04 1.2M
20260415T12Z_MSC_GDPS_WindSpeed_AGL-80m_LatLon0.15_PT074H.grib2 2026-04-15 16:04 1.2M
20260415T12Z_MSC_GDPS_WindSpeed_IsbL-0700_LatLon0.15_PT074H.grib2 2026-04-15 16:04 1.5M
20260415T12Z_MSC_GDPS_WindU_AGL-10m_LatLon0.15_PT074H.grib2 2026-04-15 16:04 1.3M
20260415T12Z_MSC_GDPS_WindU_AGL-120m_LatLon0.15_PT074H.grib2 2026-04-15 16:04 1.0M
20260415T12Z_MSC_GDPS_WindU_AGL-40m_LatLon0.15_PT074H.grib2 2026-04-15 16:04 963K
20260415T12Z_MSC_GDPS_WindU_AGL-80m_LatLon0.15_PT074H.grib2 2026-04-15 16:04 1.0M
20260415T12Z_MSC_GDPS_WindU_IsbL-0700_LatLon0.15_PT074H.grib2 2026-04-15 16:04 1.2M
20260415T12Z_MSC_GDPS_WindV_AGL-10m_LatLon0.15_PT074H.grib2 2026-04-15 16:04 1.6M
20260415T12Z_MSC_GDPS_WindV_AGL-120m_LatLon0.15_PT074H.grib2 2026-04-15 16:04 1.0M
20260415T12Z_MSC_GDPS_WindV_AGL-40m_LatLon0.15_PT074H.grib2 2026-04-15 16:04 970K
20260415T12Z_MSC_GDPS_WindV_AGL-80m_LatLon0.15_PT074H.grib2 2026-04-15 16:04 1.0M
20260415T12Z_MSC_GDPS_WindV_IsbL-0700_LatLon0.15_PT074H.grib2 2026-04-15 16:04 1.2M